Year,Month,Day,Hour,Minute,Value (Times are PST for windgust in km/hr)
2015,09,19,00,00,6.40
2015,09,19,00,01,6.40
2015,09,19,00,02,6.40
2015,09,19,00,03,4.80
2015,09,19,00,04,6.40
2015,09,19,00,05,6.40
2015,09,19,00,06,6.40
2015,09,19,00,07,16.10
2015,09,19,00,08,16.10
2015,09,19,00,09,11.30
2015,09,19,00,10,4.80
2015,09,19,00,11,8.10
2015,09,19,00,12,9.60
2015,09,19,00,13,11.30
2015,09,19,00,14,9.60
2015,09,19,00,15,6.40
2015,09,19,00,16,9.60
2015,09,19,00,17,8.10
2015,09,19,00,18,8.10
2015,09,19,00,19,11.30
2015,09,19,00,20,9.60
2015,09,19,00,21,8.10
2015,09,19,00,22,4.80
2015,09,19,00,23,4.80
2015,09,19,00,24,9.60
2015,09,19,00,25,8.10
2015,09,19,00,26,9.60
2015,09,19,00,27,16.10
2015,09,19,00,28,9.60
2015,09,19,00,29,16.10
2015,09,19,00,30,8.10
2015,09,19,00,31,8.10
2015,09,19,00,32,16.10
2015,09,19,00,33,8.10
2015,09,19,00,34,11.30
2015,09,19,00,35,17.70
2015,09,19,00,36,9.60
2015,09,19,00,37,4.80
2015,09,19,00,38,11.30
2015,09,19,00,39,14.50
2015,09,19,00,40,11.30
2015,09,19,00,41,8.10
2015,09,19,00,42,16.10
2015,09,19,00,43,8.10
2015,09,19,00,44,9.60
2015,09,19,00,45,11.30
2015,09,19,00,46,14.50
2015,09,19,00,47,11.30
2015,09,19,00,48,9.60
2015,09,19,00,49,11.30
2015,09,19,00,50,11.30
2015,09,19,00,51,9.60
2015,09,19,00,52,9.60
2015,09,19,00,53,11.30
2015,09,19,00,54,9.60
2015,09,19,00,55,9.60
2015,09,19,00,56,11.30
2015,09,19,00,57,8.10
2015,09,19,00,58,9.60
2015,09,19,00,59,9.60
2015,09,19,01,00,9.60
2015,09,19,01,01,9.60
2015,09,19,01,02,16.10
2015,09,19,01,03,16.10
2015,09,19,01,04,14.50
2015,09,19,01,05,11.30
2015,09,19,01,06,12.90
2015,09,19,01,07,11.30
2015,09,19,01,08,9.60
2015,09,19,01,09,6.40
2015,09,19,01,10,11.30
2015,09,19,01,11,11.30
2015,09,19,01,12,9.60
2015,09,19,01,13,11.30
2015,09,19,01,14,17.70
2015,09,19,01,15,11.30
2015,09,19,01,16,9.60
2015,09,19,01,17,9.60
2015,09,19,01,18,12.90
2015,09,19,01,19,16.10
2015,09,19,01,20,12.90
2015,09,19,01,21,8.10
2015,09,19,01,22,14.50
2015,09,19,01,23,9.60
2015,09,19,01,24,14.50
2015,09,19,01,25,11.30
2015,09,19,01,26,19.30
2015,09,19,01,27,16.10
2015,09,19,01,28,8.10
2015,09,19,01,29,11.30
2015,09,19,01,30,9.60
2015,09,19,01,31,11.30
2015,09,19,01,32,9.60
2015,09,19,01,33,11.30
2015,09,19,01,34,16.10
2015,09,19,01,35,16.10
2015,09,19,01,36,9.60
2015,09,19,01,37,20.90
2015,09,19,01,38,19.30
2015,09,19,01,39,17.70
2015,09,19,01,40,19.30
2015,09,19,01,41,11.30
2015,09,19,01,42,19.30
2015,09,19,01,43,16.10
2015,09,19,01,44,17.70
2015,09,19,01,45,17.70
2015,09,19,01,46,17.70
2015,09,19,01,47,11.30
2015,09,19,01,48,22.50
2015,09,19,01,49,16.10
2015,09,19,01,50,20.90
2015,09,19,01,51,14.50
2015,09,19,01,52,16.10
2015,09,19,01,53,11.30
2015,09,19,01,54,22.50
2015,09,19,01,55,14.50
2015,09,19,01,56,6.40
2015,09,19,01,57,9.60
2015,09,19,01,58,12.90
2015,09,19,01,59,17.70
2015,09,19,02,00,17.70
2015,09,19,02,01,24.20
2015,09,19,02,02,11.30
2015,09,19,02,03,14.50
2015,09,19,02,04,16.10
2015,09,19,02,05,9.60
2015,09,19,02,06,12.90
2015,09,19,02,07,17.70
2015,09,19,02,08,16.10
2015,09,19,02,09,17.70
2015,09,19,02,10,14.50
2015,09,19,02,11,16.10
2015,09,19,02,12,19.30
2015,09,19,02,13,11.30
2015,09,19,02,14,11.30
2015,09,19,02,15,14.50
2015,09,19,02,16,14.50
2015,09,19,02,17,4.80
2015,09,19,02,18,14.50
2015,09,19,02,19,17.70
2015,09,19,02,20,8.10
2015,09,19,02,21,9.60
2015,09,19,02,22,8.10
2015,09,19,02,23,9.60
2015,09,19,02,24,8.10
2015,09,19,02,25,4.80
2015,09,19,02,26,9.60
2015,09,19,02,27,4.80
2015,09,19,02,28,3.20
2015,09,19,02,29,3.20
2015,09,19,02,30,6.40
2015,09,19,02,31,9.60
2015,09,19,02,32,11.30
2015,09,19,02,33,6.40
2015,09,19,02,34,9.60
2015,09,19,02,35,9.60
2015,09,19,02,36,8.10
2015,09,19,02,37,8.10
2015,09,19,02,38,8.10
2015,09,19,02,39,8.10
2015,09,19,02,40,9.60
2015,09,19,02,41,6.40
2015,09,19,02,42,3.20
2015,09,19,02,43,3.20
2015,09,19,02,44,3.20
2015,09,19,02,45,3.20
2015,09,19,02,46,3.20
2015,09,19,02,47,8.10
2015,09,19,02,48,6.40
2015,09,19,02,49,4.80
2015,09,19,02,50,3.20
2015,09,19,02,51,6.40
2015,09,19,02,52,3.20
2015,09,19,02,53,4.80
2015,09,19,02,54,4.80
2015,09,19,02,55,4.80
2015,09,19,02,56,8.10
2015,09,19,02,57,4.80
2015,09,19,02,58,4.80
2015,09,19,02,59,3.20
2015,09,19,03,00,6.40
2015,09,19,03,01,8.10
2015,09,19,03,02,8.10
2015,09,19,03,03,8.10
2015,09,19,03,04,9.60
2015,09,19,03,05,9.60
2015,09,19,03,06,9.60
2015,09,19,03,07,1.60
2015,09,19,03,08,9.60
2015,09,19,03,09,4.80
2015,09,19,03,10,3.20
2015,09,19,03,11,6.40
2015,09,19,03,12,3.20
2015,09,19,03,13,6.40
2015,09,19,03,14,11.30
2015,09,19,03,15,12.90
2015,09,19,03,16,9.60
2015,09,19,03,17,3.20
2015,09,19,03,18,6.40
2015,09,19,03,19,6.40
2015,09,19,03,20,4.80
2015,09,19,03,21,9.60
2015,09,19,03,22,6.40
2015,09,19,03,23,9.60
2015,09,19,03,24,4.80
2015,09,19,03,25,6.40
2015,09,19,03,26,8.10
2015,09,19,03,27,11.30
2015,09,19,03,28,4.80
2015,09,19,03,29,3.20
2015,09,19,03,30,8.10
2015,09,19,03,31,6.40
2015,09,19,03,32,4.80
2015,09,19,03,33,4.80
2015,09,19,03,34,3.20
2015,09,19,03,35,6.40
2015,09,19,03,36,4.80
2015,09,19,03,37,6.40
2015,09,19,03,38,3.20
2015,09,19,03,39,8.10
2015,09,19,03,40,11.30
2015,09,19,03,41,6.40
2015,09,19,03,42,6.40
2015,09,19,03,43,8.10
2015,09,19,03,44,9.60
2015,09,19,03,45,8.10
2015,09,19,03,46,8.10
2015,09,19,03,47,3.20
2015,09,19,03,48,8.10
2015,09,19,03,49,8.10
2015,09,19,03,50,8.10
2015,09,19,03,51,9.60
2015,09,19,03,52,9.60
2015,09,19,03,53,11.30
2015,09,19,03,54,11.30
2015,09,19,03,55,8.10
2015,09,19,03,56,8.10
2015,09,19,03,57,6.40
2015,09,19,03,58,4.80
2015,09,19,03,59,6.40
2015,09,19,04,00,8.10
2015,09,19,04,01,4.80
2015,09,19,04,02,6.40
2015,09,19,04,03,9.60
2015,09,19,04,04,6.40
2015,09,19,04,05,8.10
2015,09,19,04,06,9.60
2015,09,19,04,07,9.60
2015,09,19,04,08,8.10
2015,09,19,04,09,6.40
2015,09,19,04,10,16.10
2015,09,19,04,11,14.50
2015,09,19,04,12,11.30
2015,09,19,04,13,6.40
2015,09,19,04,14,6.40
2015,09,19,04,15,8.10
2015,09,19,04,16,8.10
2015,09,19,04,17,6.40
2015,09,19,04,18,9.60
2015,09,19,04,19,11.30
2015,09,19,04,20,9.60
2015,09,19,04,21,6.40
2015,09,19,04,22,6.40
2015,09,19,04,23,9.60
2015,09,19,04,24,6.40
2015,09,19,04,25,9.60
2015,09,19,04,26,9.60
2015,09,19,04,27,9.60
2015,09,19,04,28,8.10
2015,09,19,04,29,11.30
2015,09,19,04,30,8.10
2015,09,19,04,31,12.90
2015,09,19,04,32,14.50
2015,09,19,04,33,8.10
2015,09,19,04,34,6.40
2015,09,19,04,35,4.80
2015,09,19,04,36,6.40
2015,09,19,04,37,8.10
2015,09,19,04,38,9.60
2015,09,19,04,39,6.40
2015,09,19,04,40,12.90
2015,09,19,04,41,9.60
2015,09,19,04,42,11.30
2015,09,19,04,43,14.50
2015,09,19,04,44,9.60
2015,09,19,04,45,4.80
2015,09,19,04,46,6.40
2015,09,19,04,47,9.60
2015,09,19,04,48,11.30
2015,09,19,04,49,6.40
2015,09,19,04,50,9.60
2015,09,19,04,51,6.40
2015,09,19,04,52,11.30
2015,09,19,04,53,8.10
2015,09,19,04,54,9.60
2015,09,19,04,55,6.40
2015,09,19,04,56,6.40
2015,09,19,04,57,4.80
2015,09,19,04,58,4.80
2015,09,19,04,59,11.30
2015,09,19,05,00,8.10
2015,09,19,05,01,6.40
2015,09,19,05,02,4.80
2015,09,19,05,03,8.10
2015,09,19,05,04,11.30
2015,09,19,05,05,11.30
2015,09,19,05,06,6.40
2015,09,19,05,07,9.60
2015,09,19,05,08,9.60
2015,09,19,05,09,6.40
2015,09,19,05,10,8.10
2015,09,19,05,11,9.60
2015,09,19,05,12,6.40
2015,09,19,05,13,12.90
2015,09,19,05,14,11.30
2015,09,19,05,15,4.80
2015,09,19,05,16,9.60
2015,09,19,05,17,6.40
2015,09,19,05,18,9.60
2015,09,19,05,19,11.30
2015,09,19,05,20,14.50
2015,09,19,05,21,8.10
2015,09,19,05,22,9.60
2015,09,19,05,23,9.60
2015,09,19,05,24,4.80
2015,09,19,05,25,8.10
2015,09,19,05,26,6.40
2015,09,19,05,27,6.40
2015,09,19,05,28,12.90
2015,09,19,05,29,14.50
2015,09,19,05,30,9.60
2015,09,19,05,31,11.30
2015,09,19,05,32,9.60
2015,09,19,05,33,6.40
2015,09,19,05,34,11.30
2015,09,19,05,35,9.60
2015,09,19,05,36,9.60
2015,09,19,05,37,9.60
2015,09,19,05,38,8.10
2015,09,19,05,39,8.10
2015,09,19,05,40,6.40
2015,09,19,05,41,9.60
2015,09,19,05,42,8.10
2015,09,19,05,43,9.60
2015,09,19,05,44,11.30
2015,09,19,05,45,9.60
2015,09,19,05,46,4.80
2015,09,19,05,47,6.40
2015,09,19,05,48,9.60
2015,09,19,05,49,6.40
2015,09,19,05,50,11.30
2015,09,19,05,51,9.60
2015,09,19,05,52,11.30
2015,09,19,05,53,6.40
2015,09,19,05,54,6.40
2015,09,19,05,55,8.10
2015,09,19,05,56,8.10
2015,09,19,05,57,9.60
2015,09,19,05,58,6.40
2015,09,19,05,59,8.10
2015,09,19,06,00,6.40
2015,09,19,06,01,6.40
2015,09,19,06,02,8.10
2015,09,19,06,03,4.80
2015,09,19,06,04,8.10
2015,09,19,06,05,8.10
2015,09,19,06,06,6.40
2015,09,19,06,07,6.40
2015,09,19,06,08,6.40
2015,09,19,06,09,6.40
2015,09,19,06,10,14.50
2015,09,19,06,11,8.10
2015,09,19,06,12,8.10
2015,09,19,06,13,8.10
2015,09,19,06,14,6.40
2015,09,19,06,15,6.40
2015,09,19,06,16,9.60
2015,09,19,06,17,6.40
2015,09,19,06,18,4.80
2015,09,19,06,19,8.10
2015,09,19,06,20,9.60
2015,09,19,06,21,9.60
2015,09,19,06,22,9.60
2015,09,19,06,23,8.10
2015,09,19,06,24,9.60
2015,09,19,06,25,4.80
2015,09,19,06,26,6.40
2015,09,19,06,27,6.40
2015,09,19,06,28,3.20
2015,09,19,06,29,3.20
2015,09,19,06,30,6.40
2015,09,19,06,31,8.10
2015,09,19,06,32,8.10
2015,09,19,06,33,11.30
2015,09,19,06,34,11.30
2015,09,19,06,35,9.60
2015,09,19,06,36,8.10
2015,09,19,06,37,9.60
2015,09,19,06,38,9.60
2015,09,19,06,39,8.10
2015,09,19,06,40,4.80
2015,09,19,06,41,9.60
2015,09,19,06,42,11.30
2015,09,19,06,43,6.40
2015,09,19,06,44,6.40
2015,09,19,06,45,6.40
2015,09,19,06,46,9.60
2015,09,19,06,47,8.10
2015,09,19,06,48,4.80
2015,09,19,06,49,8.10
2015,09,19,06,50,8.10
2015,09,19,06,51,8.10
2015,09,19,06,52,8.10
2015,09,19,06,53,8.10
2015,09,19,06,54,8.10
2015,09,19,06,55,4.80
2015,09,19,06,56,8.10
2015,09,19,06,57,6.40
2015,09,19,06,58,6.40
2015,09,19,06,59,6.40
2015,09,19,07,00,8.10
2015,09,19,07,01,9.60
2015,09,19,07,02,8.10
2015,09,19,07,03,9.60
2015,09,19,07,04,4.80
2015,09,19,07,05,6.40
2015,09,19,07,06,8.10
2015,09,19,07,07,9.60
2015,09,19,07,08,8.10
2015,09,19,07,09,8.10
2015,09,19,07,10,9.60
2015,09,19,07,11,16.10
2015,09,19,07,12,9.60
2015,09,19,07,13,8.10
2015,09,19,07,14,14.50
2015,09,19,07,15,8.10
2015,09,19,07,16,16.10
2015,09,19,07,17,14.50
2015,09,19,07,18,11.30
2015,09,19,07,19,11.30
2015,09,19,07,20,12.90
2015,09,19,07,21,9.60
2015,09,19,07,22,8.10
2015,09,19,07,23,9.60
2015,09,19,07,24,6.40
2015,09,19,07,25,6.40
2015,09,19,07,26,8.10
2015,09,19,07,27,8.10
2015,09,19,07,28,8.10
2015,09,19,07,29,8.10
2015,09,19,07,30,8.10
2015,09,19,07,31,6.40
2015,09,19,07,32,8.10
2015,09,19,07,33,8.10
2015,09,19,07,34,8.10
2015,09,19,07,35,8.10
2015,09,19,07,36,8.10
2015,09,19,07,37,6.40
2015,09,19,07,38,9.60
2015,09,19,07,39,9.60
2015,09,19,07,40,11.30
2015,09,19,07,41,9.60
2015,09,19,07,42,9.60
2015,09,19,07,43,11.30
2015,09,19,07,44,8.10
2015,09,19,07,45,4.80
2015,09,19,07,46,11.30
2015,09,19,07,47,11.30
2015,09,19,07,48,9.60
2015,09,19,07,49,9.60
2015,09,19,07,50,11.30
2015,09,19,07,51,9.60
2015,09,19,07,52,9.60
2015,09,19,07,53,17.70
2015,09,19,07,54,11.30
2015,09,19,07,55,9.60
2015,09,19,07,56,14.50
2015,09,19,07,57,8.10
2015,09,19,07,58,19.30
2015,09,19,07,59,11.30
2015,09,19,08,00,11.30
2015,09,19,08,01,11.30
2015,09,19,08,02,20.90
2015,09,19,08,03,17.70
2015,09,19,08,04,9.60
2015,09,19,08,05,11.30
2015,09,19,08,06,9.60
2015,09,19,08,07,22.50
2015,09,19,08,08,19.30
2015,09,19,08,09,14.50
2015,09,19,08,10,14.50
2015,09,19,08,11,11.30
2015,09,19,08,12,16.10
2015,09,19,08,13,12.90
2015,09,19,08,14,11.30
2015,09,19,08,15,16.10
2015,09,19,08,16,11.30
2015,09,19,08,17,11.30
2015,09,19,08,18,16.10
2015,09,19,08,19,12.90
2015,09,19,08,20,9.60
2015,09,19,08,21,8.10
2015,09,19,08,22,8.10
2015,09,19,08,23,16.10
2015,09,19,08,24,22.50
2015,09,19,08,25,11.30
2015,09,19,08,26,9.60
2015,09,19,08,27,14.50
2015,09,19,08,28,8.10
2015,09,19,08,29,9.60
2015,09,19,08,30,14.50
2015,09,19,08,31,17.70
2015,09,19,08,32,16.10
2015,09,19,08,33,17.70
2015,09,19,08,34,14.50
2015,09,19,08,35,14.50
2015,09,19,08,36,9.60
2015,09,19,08,37,8.10
2015,09,19,08,38,14.50
2015,09,19,08,39,16.10
2015,09,19,08,40,14.50
2015,09,19,08,41,16.10
2015,09,19,08,42,14.50
2015,09,19,08,43,12.90
2015,09,19,08,44,11.30
2015,09,19,08,45,9.60
2015,09,19,08,46,8.10
2015,09,19,08,47,9.60
2015,09,19,08,48,14.50
2015,09,19,08,49,14.50
2015,09,19,08,50,9.60
2015,09,19,08,51,12.90
2015,09,19,08,52,11.30
2015,09,19,08,53,6.40
2015,09,19,08,54,12.90
2015,09,19,08,55,17.70
2015,09,19,08,56,9.60
2015,09,19,08,57,16.10
2015,09,19,08,58,12.90
2015,09,19,08,59,11.30
2015,09,19,09,00,16.10
2015,09,19,09,01,11.30
2015,09,19,09,02,16.10
2015,09,19,09,03,9.60
2015,09,19,09,04,11.30
2015,09,19,09,05,11.30
2015,09,19,09,06,11.30
2015,09,19,09,07,24.20
2015,09,19,09,08,11.30
2015,09,19,09,09,8.10
2015,09,19,09,10,9.60
2015,09,19,09,11,11.30
2015,09,19,09,12,11.30
2015,09,19,09,13,19.30
2015,09,19,09,14,14.50
2015,09,19,09,15,19.30
2015,09,19,09,16,11.30
2015,09,19,09,17,9.60
2015,09,19,09,18,14.50
2015,09,19,09,19,11.30
2015,09,19,09,20,14.50
2015,09,19,09,21,9.60
2015,09,19,09,22,11.30
2015,09,19,09,23,12.90
2015,09,19,09,24,9.60
2015,09,19,09,25,12.90
2015,09,19,09,26,12.90
2015,09,19,09,27,14.50
2015,09,19,09,28,12.90
2015,09,19,09,29,14.50
2015,09,19,09,30,9.60
2015,09,19,09,31,9.60
2015,09,19,09,32,11.30
2015,09,19,09,33,4.80
2015,09,19,09,34,9.60
2015,09,19,09,35,9.60
2015,09,19,09,36,9.60
2015,09,19,09,37,16.10
2015,09,19,09,38,9.60
2015,09,19,09,39,16.10
2015,09,19,09,40,22.50
2015,09,19,09,41,11.30
2015,09,19,09,42,19.30
2015,09,19,09,43,17.70
2015,09,19,09,44,22.50
2015,09,19,09,45,17.70
2015,09,19,09,46,20.90
2015,09,19,09,47,22.50
2015,09,19,09,48,17.70
2015,09,19,09,49,20.90
2015,09,19,09,50,20.90
2015,09,19,09,51,20.90
2015,09,19,09,52,17.70
2015,09,19,09,53,25.70
2015,09,19,09,54,22.50
2015,09,19,09,55,20.90
2015,09,19,09,56,22.50
2015,09,19,09,57,20.90
2015,09,19,09,58,14.50
2015,09,19,09,59,17.70
2015,09,19,10,00,17.70
2015,09,19,10,01,24.20
2015,09,19,10,02,22.50
2015,09,19,10,03,20.90
2015,09,19,10,04,17.70
2015,09,19,10,05,19.30
2015,09,19,10,06,27.40
2015,09,19,10,07,17.70
2015,09,19,10,08,22.50
2015,09,19,10,09,17.70
2015,09,19,10,10,27.40
2015,09,19,10,11,22.50
2015,09,19,10,12,25.70
2015,09,19,10,13,19.30
2015,09,19,10,14,16.10
2015,09,19,10,15,20.90
2015,09,19,10,16,19.30
2015,09,19,10,17,14.50
2015,09,19,10,18,14.50
2015,09,19,10,19,17.70
2015,09,19,10,20,12.90
2015,09,19,10,21,20.90
2015,09,19,10,22,19.30
2015,09,19,10,23,24.20
2015,09,19,10,24,19.30
2015,09,19,10,25,20.90
2015,09,19,10,26,11.30
2015,09,19,10,27,16.10
2015,09,19,10,28,17.70
2015,09,19,10,29,20.90
2015,09,19,10,30,27.40
2015,09,19,10,31,27.40
2015,09,19,10,32,17.70
2015,09,19,10,33,19.30
2015,09,19,10,34,25.70
2015,09,19,10,35,17.70
2015,09,19,10,36,19.30
2015,09,19,10,37,19.30
2015,09,19,10,38,20.90
2015,09,19,10,39,24.20
2015,09,19,10,40,20.90
2015,09,19,10,41,16.10
2015,09,19,10,42,14.50
2015,09,19,10,43,17.70
2015,09,19,10,44,24.20
2015,09,19,10,45,20.90
2015,09,19,10,46,16.10
2015,09,19,10,47,19.30
2015,09,19,10,48,11.30
2015,09,19,10,49,24.20
2015,09,19,10,50,14.50
2015,09,19,10,51,16.10
2015,09,19,10,52,9.60
2015,09,19,10,53,14.50
2015,09,19,10,54,19.30
2015,09,19,10,55,16.10
2015,09,19,10,56,16.10
2015,09,19,10,57,9.60
2015,09,19,10,58,9.60
2015,09,19,10,59,16.10
2015,09,19,11,00,14.50
2015,09,19,11,01,16.10
2015,09,19,11,02,16.10
2015,09,19,11,03,11.30
2015,09,19,11,04,19.30
2015,09,19,11,05,20.90
2015,09,19,11,06,16.10
2015,09,19,11,07,14.50
2015,09,19,11,08,17.70
2015,09,19,11,09,16.10
2015,09,19,11,10,14.50
2015,09,19,11,11,17.70
2015,09,19,11,12,8.10
2015,09,19,11,13,16.10
2015,09,19,11,14,16.10
2015,09,19,11,15,11.30
2015,09,19,11,16,16.10
2015,09,19,11,17,17.70
2015,09,19,11,18,19.30
2015,09,19,11,19,11.30
2015,09,19,11,20,16.10
2015,09,19,11,21,16.10
2015,09,19,11,22,20.90
2015,09,19,11,23,16.10
2015,09,19,11,24,11.30
2015,09,19,11,25,24.20
2015,09,19,11,26,24.20
2015,09,19,11,27,16.10
2015,09,19,11,28,16.10
2015,09,19,11,29,16.10
2015,09,19,11,30,14.50
2015,09,19,11,31,9.60
2015,09,19,11,32,14.50
2015,09,19,11,33,11.30
2015,09,19,11,34,19.30
2015,09,19,11,35,11.30
2015,09,19,11,36,17.70
2015,09,19,11,37,14.50
2015,09,19,11,38,17.70
2015,09,19,11,39,19.30
2015,09,19,11,40,14.50
2015,09,19,11,41,19.30
2015,09,19,11,42,9.60
2015,09,19,11,43,8.10
2015,09,19,11,44,8.10
2015,09,19,11,45,12.90
2015,09,19,11,46,17.70
2015,09,19,11,47,12.90
2015,09,19,11,48,16.10
2015,09,19,11,49,9.60
2015,09,19,11,50,6.40
2015,09,19,11,51,14.50
2015,09,19,11,52,11.30
2015,09,19,11,53,16.10
2015,09,19,11,54,19.30
2015,09,19,11,55,8.10
2015,09,19,11,56,9.60
2015,09,19,11,57,9.60
2015,09,19,11,58,14.50
2015,09,19,11,59,9.60
2015,09,19,12,00,9.60
2015,09,19,12,01,9.60
2015,09,19,12,02,14.50
2015,09,19,12,03,8.10
2015,09,19,12,04,9.60
2015,09,19,12,05,6.40
2015,09,19,12,06,6.40
2015,09,19,12,07,9.60
2015,09,19,12,08,9.60
2015,09,19,12,09,8.10
2015,09,19,12,10,8.10
2015,09,19,12,11,6.40
2015,09,19,12,12,4.80
2015,09,19,12,13,6.40
2015,09,19,12,14,6.40
2015,09,19,12,15,16.10
2015,09,19,12,16,9.60
2015,09,19,12,17,6.40
2015,09,19,12,18,17.70
2015,09,19,12,19,16.10
2015,09,19,12,20,11.30
2015,09,19,12,21,12.90
2015,09,19,12,22,16.10
2015,09,19,12,23,19.30
2015,09,19,12,24,24.20
2015,09,19,12,25,14.50
2015,09,19,12,26,14.50
2015,09,19,12,27,12.90
2015,09,19,12,28,14.50
2015,09,19,12,29,12.90
2015,09,19,12,30,11.30
2015,09,19,12,31,11.30
2015,09,19,12,32,20.90
2015,09,19,12,33,19.30
2015,09,19,12,34,17.70
2015,09,19,12,35,11.30
2015,09,19,12,36,12.90
2015,09,19,12,37,14.50
2015,09,19,12,38,9.60
2015,09,19,12,39,6.40
2015,09,19,12,40,9.60
2015,09,19,12,41,9.60
2015,09,19,12,42,6.40
2015,09,19,12,43,4.80
2015,09,19,12,44,8.10
2015,09,19,12,45,9.60
2015,09,19,12,46,9.60
2015,09,19,12,47,11.30
2015,09,19,12,48,8.10
2015,09,19,12,49,19.30
2015,09,19,12,50,16.10
2015,09,19,12,51,9.60
2015,09,19,12,52,8.10
2015,09,19,12,53,14.50
2015,09,19,12,54,11.30
2015,09,19,12,55,8.10
2015,09,19,12,56,8.10
2015,09,19,12,57,6.40
2015,09,19,12,58,8.10
2015,09,19,12,59,8.10
2015,09,19,13,00,9.60
2015,09,19,13,01,9.60
2015,09,19,13,02,8.10
2015,09,19,13,03,9.60
2015,09,19,13,04,9.60
2015,09,19,13,05,9.60
2015,09,19,13,06,9.60
2015,09,19,13,07,4.80
2015,09,19,13,08,6.40
2015,09,19,13,09,14.50
2015,09,19,13,10,8.10
2015,09,19,13,11,6.40
2015,09,19,13,12,6.40
2015,09,19,13,13,8.10
2015,09,19,13,14,8.10
2015,09,19,13,15,16.10
2015,09,19,13,16,9.60
2015,09,19,13,17,4.80
2015,09,19,13,18,8.10
2015,09,19,13,19,9.60
2015,09,19,13,20,8.10
2015,09,19,13,21,6.40
2015,09,19,13,22,11.30
2015,09,19,13,23,9.60
2015,09,19,13,24,6.40
2015,09,19,13,25,4.80
2015,09,19,13,26,8.10
2015,09,19,13,27,6.40
2015,09,19,13,28,8.10
2015,09,19,13,29,11.30
2015,09,19,13,30,6.40
2015,09,19,13,31,9.60
2015,09,19,13,32,4.80
2015,09,19,13,33,8.10
2015,09,19,13,34,14.50
2015,09,19,13,35,6.40
2015,09,19,13,36,8.10
2015,09,19,13,37,8.10
2015,09,19,13,38,8.10
2015,09,19,13,39,9.60
2015,09,19,13,40,8.10
2015,09,19,13,41,4.80
2015,09,19,13,42,9.60
2015,09,19,13,43,14.50
2015,09,19,13,44,6.40
2015,09,19,13,45,11.30
2015,09,19,13,46,4.80
2015,09,19,13,47,14.50
2015,09,19,13,48,6.40
2015,09,19,13,49,8.10
2015,09,19,13,50,11.30
2015,09,19,13,51,9.60
2015,09,19,13,52,9.60
2015,09,19,13,53,9.60
2015,09,19,13,54,19.30
2015,09,19,13,55,11.30
2015,09,19,13,56,16.10
2015,09,19,13,57,17.70
2015,09,19,13,58,17.70
2015,09,19,13,59,8.10
2015,09,19,14,00,14.50
2015,09,19,14,01,17.70
2015,09,19,14,02,9.60
2015,09,19,14,03,16.10
2015,09,19,14,04,8.10
2015,09,19,14,05,14.50
2015,09,19,14,06,14.50
2015,09,19,14,07,11.30
2015,09,19,14,08,17.70
2015,09,19,14,09,8.10
2015,09,19,14,10,9.60
2015,09,19,14,11,8.10
2015,09,19,14,12,11.30
2015,09,19,14,13,16.10
2015,09,19,14,14,9.60
2015,09,19,14,15,9.60
2015,09,19,14,16,11.30
2015,09,19,14,17,9.60
2015,09,19,14,18,14.50
2015,09,19,14,19,9.60
2015,09,19,14,20,9.60
2015,09,19,14,21,8.10
2015,09,19,14,22,17.70
2015,09,19,14,23,9.60
2015,09,19,14,24,9.60
2015,09,19,14,25,11.30
2015,09,19,14,26,11.30
2015,09,19,14,27,8.10
2015,09,19,14,28,11.30
2015,09,19,14,29,6.40
2015,09,19,14,30,11.30
2015,09,19,14,31,8.10
2015,09,19,14,32,8.10
2015,09,19,14,33,3.20
2015,09,19,14,34,6.40
2015,09,19,14,35,9.60
2015,09,19,14,36,6.40
2015,09,19,14,37,4.80
2015,09,19,14,38,8.10
2015,09,19,14,39,4.80
2015,09,19,14,40,6.40
2015,09,19,14,41,8.10
2015,09,19,14,42,9.60
2015,09,19,14,43,8.10
2015,09,19,14,44,9.60
2015,09,19,14,45,11.30
2015,09,19,14,46,11.30
2015,09,19,14,47,6.40
2015,09,19,14,48,8.10
2015,09,19,14,49,6.40
2015,09,19,14,50,9.60
2015,09,19,14,51,9.60
2015,09,19,14,52,9.60
2015,09,19,14,53,11.30
2015,09,19,14,54,11.30
2015,09,19,14,55,8.10
2015,09,19,14,56,9.60
2015,09,19,14,57,9.60
2015,09,19,14,58,6.40
2015,09,19,14,59,12.90
2015,09,19,15,00,9.60
2015,09,19,15,01,6.40
2015,09,19,15,02,16.10
2015,09,19,15,03,9.60
2015,09,19,15,04,8.10
2015,09,19,15,05,16.10
2015,09,19,15,06,11.30
2015,09,19,15,07,8.10
2015,09,19,15,08,4.80
2015,09,19,15,09,3.20
2015,09,19,15,10,8.10
2015,09,19,15,11,8.10
2015,09,19,15,12,8.10
2015,09,19,15,13,3.20
2015,09,19,15,14,4.80
2015,09,19,15,15,3.20
2015,09,19,15,16,6.40
2015,09,19,15,17,3.20
2015,09,19,15,18,3.20
2015,09,19,15,19,1.60
2015,09,19,15,20,8.10
2015,09,19,15,21,8.10
2015,09,19,15,22,4.80
2015,09,19,15,23,4.80
2015,09,19,15,24,6.40
2015,09,19,15,25,4.80
2015,09,19,15,26,8.10
2015,09,19,15,27,6.40
2015,09,19,15,28,6.40
2015,09,19,15,29,9.60
2015,09,19,15,30,4.80
2015,09,19,15,31,8.10
2015,09,19,15,32,6.40
2015,09,19,15,33,4.80
2015,09,19,15,34,4.80
2015,09,19,15,35,4.80
2015,09,19,15,36,6.40
2015,09,19,15,37,6.40
2015,09,19,15,38,4.80
2015,09,19,15,39,6.40
2015,09,19,15,40,3.20
2015,09,19,15,41,1.60
2015,09,19,15,42,8.10
2015,09,19,15,43,8.10
2015,09,19,15,44,6.40
2015,09,19,15,45,8.10
2015,09,19,15,46,6.40
2015,09,19,15,47,9.60
2015,09,19,15,48,4.80
2015,09,19,15,49,1.60
2015,09,19,15,50,4.80
2015,09,19,15,51,6.40
2015,09,19,15,52,4.80
2015,09,19,15,53,4.80
2015,09,19,15,54,9.60
2015,09,19,15,55,8.10
2015,09,19,15,56,1.60
2015,09,19,15,57,4.80
2015,09,19,15,58,4.80
2015,09,19,15,59,9.60
2015,09,19,16,00,14.50
2015,09,19,16,01,8.10
2015,09,19,16,02,4.80
2015,09,19,16,03,8.10
2015,09,19,16,04,6.40
2015,09,19,16,05,4.80
2015,09,19,16,06,11.30
2015,09,19,16,07,12.90
2015,09,19,16,08,8.10
2015,09,19,16,09,8.10
2015,09,19,16,10,8.10
2015,09,19,16,11,9.60
2015,09,19,16,12,17.70
2015,09,19,16,13,9.60
2015,09,19,16,14,16.10
2015,09,19,16,15,14.50
2015,09,19,16,16,9.60
2015,09,19,16,17,12.90
2015,09,19,16,18,11.30
2015,09,19,16,19,6.40
2015,09,19,16,20,9.60
2015,09,19,16,21,14.50
2015,09,19,16,22,17.70
2015,09,19,16,23,12.90
2015,09,19,16,24,9.60
2015,09,19,16,25,8.10
2015,09,19,16,26,6.40
2015,09,19,16,27,4.80
2015,09,19,16,28,8.10
2015,09,19,16,29,8.10
2015,09,19,16,30,9.60
2015,09,19,16,31,6.40
2015,09,19,16,32,9.60
2015,09,19,16,33,16.10
2015,09,19,16,34,12.90
2015,09,19,16,35,16.10
2015,09,19,16,36,14.50
2015,09,19,16,37,17.70
2015,09,19,16,38,11.30
2015,09,19,16,39,16.10
2015,09,19,16,40,11.30
2015,09,19,16,41,17.70
2015,09,19,16,42,11.30
2015,09,19,16,43,11.30
2015,09,19,16,44,9.60
2015,09,19,16,45,8.10
2015,09,19,16,46,9.60
2015,09,19,16,47,6.40
2015,09,19,16,48,6.40
2015,09,19,16,49,8.10
2015,09,19,16,50,6.40
2015,09,19,16,51,11.30
2015,09,19,16,52,8.10
2015,09,19,16,53,8.10
2015,09,19,16,54,4.80
2015,09,19,16,55,8.10
2015,09,19,16,56,8.10
2015,09,19,16,57,4.80
2015,09,19,16,58,1.60
2015,09,19,16,59,4.80
2015,09,19,17,01,3.20
2015,09,19,17,02,3.20
2015,09,19,17,03,3.20
2015,09,19,17,04,1.60
2015,09,19,17,05,1.60
2015,09,19,17,06,1.60
2015,09,19,17,08,9.60
2015,09,19,17,09,11.30
2015,09,19,17,10,11.30
2015,09,19,17,11,8.10
2015,09,19,17,12,9.60
2015,09,19,17,13,4.80
2015,09,19,17,14,4.80
2015,09,19,17,15,1.60
2015,09,19,17,17,4.80
2015,09,19,17,18,3.20
2015,09,19,17,19,4.80
2015,09,19,17,20,6.40
2015,09,19,17,21,9.60
2015,09,19,17,22,9.60
2015,09,19,17,23,6.40
2015,09,19,17,24,8.10
2015,09,19,17,25,8.10
2015,09,19,17,26,4.80
2015,09,19,17,27,4.80
2015,09,19,17,28,8.10
2015,09,19,17,29,6.40
2015,09,19,17,30,4.80
2015,09,19,17,31,4.80
2015,09,19,17,32,4.80
2015,09,19,17,33,11.30
2015,09,19,17,34,16.10
2015,09,19,17,35,16.10
2015,09,19,17,36,11.30
2015,09,19,17,37,11.30
2015,09,19,17,38,6.40
2015,09,19,17,39,11.30
2015,09,19,17,40,8.10
2015,09,19,17,41,8.10
2015,09,19,17,42,9.60
2015,09,19,17,43,11.30
2015,09,19,17,44,12.90
2015,09,19,17,45,17.70
2015,09,19,17,46,11.30
2015,09,19,17,47,9.60
2015,09,19,17,48,9.60
2015,09,19,17,49,8.10